RH
26 25 25 25 26 25 27 29 29 34 34 30 28 25 27 26 24 26 25 28 31 33 31 32 34 34 39 44 48 44 44 34 31 49 53 64 67 55 46 37 48 54 48 52 58 73 77 67 63 52 57 70 59 37 19 13 15 18 21 21 22 21 21 21 20 22 23 23 21 19 18 17 16 15 15 14 15 20 36 42 30 27 31 32 32 29 27 26 22 18 14 14 14 13 13 13 12
28 27 26 26 26 26 28 30 29 31 30 27 27 23 25 24 24 25 22 28 30 32 30 31 33 35 37 35 43 42 35 28 36 53 54 62 64 53 48 40 41 42 43 53 62 72 74 67 63 52 51 65 55 31 18 14 16 20 22 22 21 22 22 22 23 24 25 23 21 18 17 15 13 13 13 16 25 41 57 53 35 30 33 35 36 34 29 24 20 17 15 14 14 16 16 16 16
28 28 27 26 26 27 28 29 27 28 28 25 26 23 25 27 26 24 22 30 33 33 33 34 34 33 33 30 40 42 33 34 46 53 51 57 59 51 47 44 42 39 45 59 64 67 67 63 59 47 47 62 49 26 18 15 19 21 22 23 22 24 26 26 26 26 26 24 21 18 16 14 13 12 12 23 42 55 55 42 32 29 31 34 35 36 35 28 20 16 14 14 16 19 21 21 20
27 27 26 27 26 26 26 27 27 27 26 25 26 25 27 29 25 24 25 30 34 34 34 37 36 30 29 32 42 43 39 44 51 52 51 55 57 54 47 44 47 44 49 61 64 62 59 58 54 43 47 60 44 22 16 16 19 21 22 22 24 31 31 28 27 28 29 27 25 21 17 15 14 14 16 35 60 61 44 29 26 27 28 30 32 36 38 35 28 20 17 17 20 24 25 24 22
27 26 26 26 26 26 26 27 27 26 26 27 28 26 26 25 24 25 27 31 34 32 31 34 35 33 30 37 48 47 45 50 52 51 53 57 59 57 49 47 53 53 52 59 64 62 61 56 49 42 49 56 37 19 16 16 18 20 22 23 30 36 33 29 31 34 34 32 30 25 21 18 18 20 26 43 57 51 34 24 25 27 29 32 35 38 39 39 35 28 23 23 25 27 27 26 25
26 26 26 26 26 26 26 26 27 27 28 28 27 25 24 23 23 23 25 30 34 31 28 30 33 36 36 42 50 50 50 52 51 52 56 60 61 60 52 50 55 58 57 60 64 64 63 53 44 44 52 53 32 19 17 15 17 20 21 27 37 35 30 31 35 38 39 38 36 32 28 25 25 29 34 39 39 33 27 26 29 31 35 38 40 42 42 40 36 31 29 29 31 32 32 32 31
26 26 26 25 25 25 25 26 27 27 27 26 24 21 21 22 23 23 25 30 35 33 28 29 32 36 41 45 50 53 54 50 49 54 61 62 62 62 55 57 64 64 62 65 67 65 62 49 42 48 57 51 30 20 18 15 17 20 22 30 35 30 30 33 36 38 41 42 40 39 36 34 34 37 39 36 33 31 31 34 38 39 41 44 45 45 42 39 35 33 33 34 35 36 36 35 35
27 26 26 25 25 26 25 26 27 27 26 24 22 19 20 21 24 28 30 32 36 36 31 31 34 40 47 50 52 55 51 47 51 55 64 68 62 61 58 63 74 69 64 68 69 66 60 49 44 53 60 46 25 20 20 16 17 20 22 27 29 28 31 33 34 36 38 41 42 42 43 45 45 44 42 38 38 39 41 43 45 46 46 47 47 45 40 38 37 37 37 37 37 37 36 35 35
27 25 25 26 26 27 26 27 26 25 24 22 19 18 21 22 26 33 35 35 37 37 36 38 42 49 53 54 53 50 47 45 49 50 64 77 66 62 63 63 70 67 65 67 65 65 61 52 50 58 58 39 22 22 21 17 17 20 22 26 28 28 30 30 31 34 38 41 44 46 48 52 52 49 45 44 45 45 46 47 49 49 48 48 46 43 40 39 40 39 38 36 37 37 36 35 36
27 26 26 26 26 28 27 26 25 24 23 22 21 23 28 27 29 36 38 37 38 39 40 45 48 50 52 54 50 47 46 44 48 49 65 81 69 65 67 62 63 63 64 65 64 66 62 56 55 57 52 35 21 21 23 20 18 20 22 25 26 26 27 27 29 34 38 41 44 47 49 52 52 52 49 46 47 48 49 49 50 50 50 49 45 42 41 41 40 39 37 37 37 38 37 37 39
28 27 27 27 27 27 27 26 24 23 23 25 32 37 36 31 32 36 40 43 42 43 43 45 46 44 48 50 46 45 46 43 50 61 70 78 73 68 67 64 63 66 66 66 69 68 65 59 53 50 46 32 20 24 30 24 18 20 21 22 24 24 24 25 28 32 38 41 44 47 49 52 53 56 56 51 50 49 49 50 49 49 50 48 45 44 43 42 40 39 38 37 37 38 39 39 42
27 28 27 27 27 25 27 26 23 30 29 31 44 48 42 36 37 39 42 45 41 42 42 43 45 45 48 46 43 46 46 44 54 70 71 73 81 75 72 75 75 78 77 75 75 72 70 59 47 47 44 29 22 30 32 23 19 19 18 19 22 22 23 24 25 33 43 45 44 48 52 54 54 59 61 58 56 52 48 48 48 47 48 47 46 45 44 42 40 39 39 39 39 40 41 43 44
27 28 28 27 27 25 27 24 27 41 37 38 53 55 50 46 45 46 45 42 38 39 42 44 46 49 50 46 46 46 44 46 58 72 67 67 82 79 78 84 85 89 86 82 79 77 73 57 49 52 45 32 33 37 28 20 19 18 18 18 19 20 21 22 22 31 47 50 46 49 56 60 60 58 55 53 54 53 49 48 48 48 47 47 46 45 45 43 42 41 41 42 41 41 43 45 45
26 27 28 27 28 27 26 25 31 40 40 48 57 56 55 53 49 49 45 40 39 39 40 41 41 49 52 49 45 41 40 46 56 61 55 55 66 73 76 79 85 91 86 84 82 77 69 59 59 55 43 40 42 36 25 22 20 17 17 16 17 18 19 20 20 25 38 50 50 47 54 61 63 58 51 48 49 51 54 52 51 51 48 48 47 46 46 45 44 44 44 45 45 44 45 47 46
27 27 28 28 28 27 28 31 34 34 44 55 51 52 52 46 43 43 45 41 37 35 34 33 36 44 49 48 41 35 38 47 55 51 45 46 50 61 70 76 87 93 90 89 82 71 63 63 66 55 48 51 44 34 27 25 22 19 18 16 16 16 17 18 20 23 29 42 47 46 51 53 55 57 55 50 47 50 54 52 52 52 49 49 49 49 47 45 45 45 46 47 48 47 48 49 46
27 27 27 28 27 30 33 31 31 27 40 51 41 46 49 43 39 38 42 40 34 32 32 30 32 36 38 41 38 37 42 48 57 52 45 46 48 59 71 82 94 97 95 91 79 68 66 70 69 59 59 56 42 34 30 28 25 22 19 17 17 18 20 21 23 27 31 37 41 45 49 49 48 49 53 54 50 51 52 51 53 53 51 51 51 52 49 47 46 47 49 49 51 49 50 51 47
27 27 26 28 26 30 32 26 26 21 31 44 37 42 48 44 40 36 39 38 34 31 30 30 31 34 35 40 42 44 47 50 57 53 47 49 52 65 79 88 96 98 92 85 78 70 72 75 68 64 65 55 44 40 35 34 30 26 23 21 20 22 24 25 27 30 34 38 42 46 46 48 48 43 46 52 52 51 52 53 55 55 54 54 54 54 52 50 49 49 50 52 53 51 51 51 47
27 26 25 27 25 28 29 23 22 17 25 38 36 44 49 45 38 36 37 35 34 30 28 31 31 35 38 43 45 47 50 52 54 52 51 53 56 69 85 93 98 97 86 78 75 71 75 76 68 65 62 53 48 42 37 35 32 29 26 25 24 24 24 24 26 27 28 31 38 43 45 48 49 44 41 45 47 48 50 50 52 55 56 55 55 56 54 54 53 52 52 52 54 53 53 51 46
26 25 23 23 24 26 27 23 19 17 27 35 36 45 49 45 38 35 34 30 33 32 30 31 30 32 36 41 45 48 52 54 54 53 52 53 59 73 88 96 100 98 88 79 77 76 80 77 66 61 56 52 50 44 42 41 40 38 35 35 35 35 35 33 33 34 34 33 34 37 41 46 51 52 47 44 44 44 47 48 47 46 49 53 55 57 57 56 55 54 53 53 55 55 53 50 45
23 22 20 22 24 26 26 21 18 20 29 35 38 42 43 41 36 33 32 27 27 30 29 29 30 30 33 40 46 49 50 51 52 53 53 55 65 78 90 98 100 98 93 86 82 78 74 68 63 60 58 58 56 52 51 50 50 51 50 50 49 49 52 52 50 50 51 50 47 45 44 44 49 59 61 56 50 44 44 46 45 38 37 43 47 52 54 53 53 53 54 54 56 57 55 51 45
20 19 20 24 23 26 25 18 19 24 30 38 41 39 36 33 31 31 32 28 23 23 24 25 29 30 33 39 45 48 47 48 49 50 55 60 69 81 91 98 98 95 90 86 79 69 64 64 65 64 63 61 59 57 54 51 49 48 47 46 46 48 52 56 56 55 57 58 58 57 54 51 50 57 63 65 63 55 49 46 44 36 32 34 36 41 44 43 44 48 51 53 55 59 62 57 49
18 19 20 23 21 22 20 18 25 29 35 45 44 38 32 28 28 27 28 26 21 19 20 21 25 29 34 40 44 46 46 47 46 47 54 62 71 79 88 93 91 87 82 78 70 64 66 69 69 66 63 61 58 56 54 53 50 46 42 39 39 40 42 44 46 47 48 50 53 55 56 57 57 57 60 64 67 65 59 54 49 42 36 34 32 32 32 33 35 40 45 50 55 61 68 64 54
18 19 19 21 20 17 16 23 32 34 42 49 42 34 28 26 27 26 27 26 22 22 22 23 27 31 36 41 43 44 44 44 43 44 52 63 72 78 84 85 80 76 74 72 69 71 72 72 70 66 63 60 57 56 55 54 50 47 45 43 42 42 43 44 46 46 46 47 48 49 49 51 53 55 57 60 64 66 64 62 59 54 49 48 46 41 35 33 32 35 41 48 53 58 67 67 57
17 18 19 19 19 16 16 27 36 43 50 45 35 30 27 27 27 28 30 27 25 24 23 26 31 34 39 42 42 43 43 41 42 46 54 65 73 78 81 77 73 73 74 74 75 75 72 69 66 64 62 60 59 58 59 56 50 49 51 51 50 48 48 49 49 48 48 49 47 48 47 46 46 46 47 50 56 61 65 65 63 61 60 60 60 55 50 47 42 39 41 48 54 57 63 67 62
15 17 18 18 19 15 17 32 45 52 48 36 30 29 28 31 31 30 29 26 25 23 23 28 33 37 41 43 42 42 41 42 46 50 57 66 72 78 78 74 75 77 78 77 75 72 68 66 63 61 61 60 60 59 60 59 54 53 53 52 50 47 44 42 42 41 41 41 40 41 42 42 41 40 41 43 47 52 57 60 63 64 63 62 60 55 53 55 55 52 49 51 55 56 59 63 64
15 16 16 17 16 15 26 45 54 52 41 33 32 28 27 32 35 32 27 24 23 23 26 31 37 43 45 44 42 40 41 46 52 56 61 67 72 77 77 75 77 78 76 75 72 71 68 66 64 62 61 60 60 61 62 61 56 53 51 49 48 46 43 42 43 41 37 34 33 33 33 33 33 33 34 35 38 41 45 49 55 59 61 61 60 58 54 53 56 57 56 56 57 57 57 59 61
16 15 16 17 14 24 48 57 53 45 37 37 35 29 29 32 33 31 26 24 23 25 29 36 43 48 48 46 43 41 44 50 58 63 66 70 74 78 77 74 75 75 74 74 73 71 69 68 65 63 62 63 64 61 57 53 51 50 50 50 50 49 46 44 41 36 32 31 31 31 29 28 26 27 27 28 30 32 35 38 42 47 50 51 52 54 55 55 55 53 53 55 56 58 59 59 59
18 15 15 18 24 44 64 57 49 44 36 41 40 32 33 35 34 30 27 26 25 30 37 44 50 52 50 47 45 44 49 57 63 67 70 72 76 79 79 75 74 75 75 75 73 71 72 68 62 61 64 64 63 56 49 47 47 47 49 49 46 42 38 35 31 28 27 27 28 28 27 26 25 24 23 23 24 25 27 28 30 34 37 39 40 43 47 51 54 55 55 54 55 56 60 62 60
22 21 15 27 50 64 64 52 47 42 35 42 43 37 36 35 34 30 28 29 30 39 48 54 57 55 52 49 48 51 57 62 66 69 70 71 76 82 83 79 77 76 75 74 73 73 71 64 59 64 66 60 56 52 47 44 41 42 44 40 34 29 27 27 27 26 27 27 27 28 28 28 28 27 25 23 22 22 22 22 22 23 24 26 28 32 36 40 47 54 57 56 57 56 55 59 59
29 28 19 40 69 67 56 47 42 40 37 41 41 40 38 32 32 31 31 34 39 48 56 60 60 58 55 52 55 61 63 65 68 69 67 66 70 77 82 82 81 79 77 75 73 70 65 61 63 65 60 54 52 47 40 34 31 33 32 29 26 26 27 28 29 29 29 29 29 30 30 31 31 30 29 27 25 24 24 24 23 22 21 20 20 21 23 26 31 40 49 54 57 59 58 55 53
36 38 37 51 65 59 52 45 40 39 35 34 35 37 34 30 31 32 33 40 50 58 62 64 62 60 59 59 65 68 66 65 67 68 66 64 63 67 73 75 76 76 75 72 68 65 62 62 63 59 54 51 45 35 28 24 24 25 25 25 26 27 28 29 30 31 31 32 32 33 33 33 33 32 30 29 28 28 29 29 27 25 23 22 21 19 18 19 20 23 32 43 52 59 62 59 54
34 43 54 55 53 52 53 45 41 40 32 29 33 37 32 27 28 28 35 49 60 65 65 66 65 62 60 63 70 71 69 67 66 66 66 65 63 63 65 65 67 68 69 67 64 61 57 56 55 53 50 42 32 25 23 23 24 25 25 26 27 28 29 30 31 32 33 35 34 34 34 34 35 34 33 31 30 30 30 30 28 25 22 20 20 22 21 18 18 18 19 26 38 52 62 65 62
37 41 49 52 51 50 52 47 44 39 34 32 33 35 29 24 25 25 36 54 66 68 64 63 63 64 63 63 67 70 71 71 69 68 68 69 69 67 67 67 68 69 68 63 56 52 48 48 48 45 38 28 23 23 23 24 24 25 25 26 27 27 29 30 32 33 34 35 35 35 34 34 35 35 36 35 34 33 31 31 29 26 23 20 22 32 37 28 20 18 18 20 22 31 47 61 67
39 36 36 49 53 47 46 47 47 36 31 35 33 32 27 23 25 25 33 48 60 64 64 64 58 58 60 58 59 63 67 70 72 74 73 73 73 74 74 72 70 65 59 50 42 39 38 37 35 30 26 23 23 23 23 23 23 24 24 25 26 27 29 30 32 34 34 34 34 34 32 33 33 34 36 36 36 35 34 33 31 29 28 25 24 32 48 51 37 24 19 20 22 25 29 41 56
29 30 30 40 47 46 38 34 40 34 29 35 33 30 27 26 27 28 35 41 46 51 58 65 59 54 53 50 49 53 60 65 67 73 77 77 77 74 69 62 57 50 41 34 29 27 27 26 25 23 23 23 23 22 22 23 23 24 25 26 28 29 31 32 33 34 34 34 33 32 30 29 28 28 29 31 33 35 35 34 33 31 30 30 28 27 37 49 46 37 28 20 24 31 27 26 35
23 27 29 31 35 40 35 27 33 33 29 32 30 28 27 28 29 33 39 42 48 53 59 68 68 63 54 46 45 49 55 58 58 63 68 68 66 60 52 45 41 35 29 26 25 24 23 23 23 22 22 22 21 21 22 23 24 26 28 30 32 34 35 35 35 35 33 32 30 29 27 25 24 22 21 22 23 26 29 32 34 33 31 30 30 29 29 32 30 32 39 38 32 29 23 18 22
21 22 26 30 29 31 31 28 31 32 32 31 30 30 30 33 35 37 43 49 57 63 68 73 73 73 67 54 48 47 49 48 47 49 50 50 49 46 42 37 32 28 26 25 24 23 23 22 22 21 21 21 21 22 23 24 27 29 31 33 34 35 36 35 34 33 31 29 28 27 25 24 22 21 20 19 18 18 19 22 27 31 33 33 32 31 30 29 22 19 30 43 43 37 30 20 20
22 21 24 27 29 29 28 27 29 32 35 34 34 35 36 38 39 42 48 54 58 60 65 71 72 74 72 61 48 41 40 39 39 40 37 36 37 35 33 30 28 26 25 24 23 22 22 21 21 22 22 22 23 24 25 27 29 30 31 32 32 33 34 34 32 31 29 28 27 26 24 23 22 21 20 19 18 17 16 16 18 22 26 29 30 29 27 24 20 15 17 23 25 27 32 28 23
22 24 24 25 28 30 29 29 32 32 32 33 34 37 41 41 42 46 52 55 56 59 62 69 78 76 66 57 48 38 33 34 33 31 28 27 27 26 26 25 25 24 24 23 23 22 22 22 23 24 24 25 26 27 28 30 31 31 31 30 29 29 28 28 28 27 27 26 25 24 22 21 20 19 19 18 18 17 16 14 14 15 17 19 19 19 19 16 14 12 11 12 11 10 17 27 30
23 25 26 26 26 29 29 31 34 33 33 34 32 38 43 43 43 47 52 53 52 57 58 63 76 72 58 54 51 40 30 30 29 27 26 25 25 26 25 25 27 30 31 30 29 27 26 25 25 25 26 28 30 32 33 33 33 31 30 27 24 21 19 19 19 19 19 19 19 19 18 18 17 16 16 15 15 15 15 14 12 12 12 13 13 13 13 12 12 11 10 9 10 9 8 16 28
24 25 26 27 25 27 28 29 36 36 34 34 33 39 43 39 39 40 46 49 48 51 52 56 64 60 51 49 44 34 27 28 27 27 28 27 28 28 27 31 40 45 45 42 40 36 32 30 28 29 31 34 36 37 37 35 33 31 27 23 19 16 14 13 13 12 12 13 13 13 13 13 13 12 12 11 11 12 12 11 11 11 10 10 10 11 11 11 11 10 11 9 8 9 9 8 19
25 25 25 27 25 25 26 28 35 35 34 36 35 42 43 34 31 34 39 44 46 46 44 51 60 58 54 51 44 36 30 29 27 28 32 34 35 31 30 44 53 52 48 45 43 41 40 38 37 37 38 40 40 39 38 35 32 27 22 18 15 13 11 10 9 8 7 7 7 8 8 8 8 8 8 8 7 7 8 8 8 8 8 8 8 8 8 9 9 8 8 9 8 8 9 8 11
26 25 23 25 26 25 25 26 30 29 30 36 35 39 42 32 27 30 35 40 43 44 42 45 52 54 53 51 50 44 35 31 29 29 34 40 40 33 39 54 57 52 50 45 41 43 48 49 46 45 43 43 42 39 36 31 26 21 17 14 12 10 8 6 6 6 6 7 7 7 7 7 7 6 6 7 6 6 6 7 7 6 6 6 6 6 7 6 7 7 7 7 7 8 9 12 11
26 26 25 26 24 24 25 25 27 26 27 35 37 36 37 31 26 27 33 39 41 41 40 41 43 46 46 45 48 47 40 35 32 35 39 40 38 37 47 58 57 55 52 45 43 45 51 53 50 48 45 43 39 34 29 23 19 16 13 10 8 6 5 5 7 8 10 11 11 11 11 11 10 10 10 9 9 10 11 10 9 8 6 5 5 4 5 5 5 5 6 6 6 8 12 16 18
26 27 26 26 24 25 26 24 26 26 26 34 39 40 41 35 26 25 29 34 37 35 34 37 39 41 42 42 45 47 47 45 44 47 49 47 45 46 54 62 59 56 54 54 54 49 48 50 48 45 42 37 32 26 21 19 17 13 9 6 5 5 5 8 11 12 14 14 15 16 16 16 17 17 17 18 19 18 19 21 20 18 14 11 10 8 5 4 4 4 4 5 7 11 16 20 23
26 26 25 24 24 24 23 23 26 27 27 30 32 37 43 38 26 24 27 27 30 31 31 34 36 38 41 41 43 45 50 52 52 55 57 57 57 57 63 67 62 58 60 65 65 56 50 48 44 41 38 31 25 22 20 19 14 8 6 5 5 6 8 12 13 14 15 15 16 18 21 23 25 27 32 42 45 37 34 37 36 34 30 23 19 17 13 7 5 5 6 9 13 18 25 30 33
26 25 23 22 24 24 23 24 24 30 34 29 26 30 35 35 27 24 26 27 29 30 31 34 35 37 39 39 41 43 46 49 51 57 61 63 63 63 69 71 66 64 64 66 66 60 54 48 42 38 33 27 24 24 22 17 10 6 5 5 5 7 11 13 13 14 14 15 18 24 31 34 37 47 57 61 60 53 50 52 50 47 44 34 23 19 17 13 10 11 15 20 26 32 36 39 42
25 25 24 22 25 24 24 25 23 34 44 32 25 29 33 35 30 25 29 30 31 32 31 33 34 35 35 36 39 40 43 46 49 55 59 62 65 66 72 74 72 70 64 56 56 58 55 46 39 35 30 27 26 26 22 13 7 5 5 5 5 8 11 12 12 13 15 17 24 33 42 46 49 60 67 63 60 58 57 57 56 54 50 38 27 24 24 25 25 27 29 32 37 44 50 52 53
25 26 25 24 34 35 37 45 39 37 42 32 29 34 34 34 29 28 33 31 31 33 32 32 33 34 35 35 37 39 41 44 47 52 56 60 64 68 74 77 75 73 65 54 52 57 54 43 36 33 30 28 28 26 20 11 5 5 5 5 5 7 10 12 12 13 16 21 32 42 50 57 59 64 69 67 64 63 61 62 63 62 58 51 45 42 40 42 45 46 46 47 51 57 63 65 63
24 27 27 28 45 53 58 69 57 42 40 36 39 42 37 35 31 30 33 30 31 31 30 33 33 34 35 36 38 40 41 44 46 52 56 58 61 67 74 75 74 75 70 62 58 55 46 37 33 32 30 28 26 23 17 9 5 5 5 4 5 6 9 12 12 13 16 22 33 43 50 57 62 67 74 72 67 66 68 68 67 67 64 63 62 60 58 58 58 58 58 59 60 61 63 64 64
26 29 30 28 37 44 49 57 51 43 43 41 44 45 39 36 32 32 33 31 30 29 30 33 33 35 37 37 40 41 42 44 47 52 55 56 59 66 71 72 72 74 71 65 59 50 40 33 31 29 27 27 25 21 14 8 5 5 5 5 4 5 8 11 12 12 14 19 28 41 52 59 62 67 73 74 70 72 73 70 69 69 67 66 66 66 65 64 62 65 67 65 63 63 64 65 65
28 30 30 29 31 31 34 42 41 39 43 43 44 43 38 34 31 30 32 31 30 30 31 32 31 34 37 37 38 39 40 42 47 52 55 55 59 64 67 68 70 72 69 61 52 45 39 34 33 31 29 27 24 20 13 7 6 5 5 5 4 5 7 9 12 12 13 15 21 34 51 62 65 66 69 70 71 74 77 75 74 74 72 71 70 68 66 64 63 65 66 63 61 61 62 63 64
29 28 29 32 33 32 33 38 41 43 45 43 40 38 34 31 29 28 29 31 30 30 31 31 31 33 35 34 34 36 38 39 44 50 53 56 61 64 66 67 70 72 69 60 50 46 43 43 48 51 46 36 26 20 13 7 6 5 5 5 5 5 6 6 9 12 13 13 15 25 41 56 65 68 69 68 68 73 76 76 75 74 73 71 70 69 67 67 65 64 63 62 61 61 62 63 62
29 28 30 32 33 35 34 36 45 52 54 48 38 34 34 32 31 30 29 30 29 29 31 31 32 33 32 32 32 34 38 40 43 48 53 59 63 66 69 72 73 74 72 66 59 56 55 58 65 68 63 50 33 21 14 8 6 5 5 5 5 5 5 5 7 10 13 14 14 18 29 45 58 68 76 76 72 73 76 75 73 72 69 67 67 68 68 68 67 65 64 63 64 65 66 67 66
29 29 32 31 30 35 35 37 46 52 58 58 43 34 34 31 30 30 30 31 29 29 31 31 32 32 31 32 34 35 38 42 43 45 50 56 60 64 69 72 74 73 72 72 69 66 65 68 73 73 66 53 35 21 15 9 6 5 5 5 5 5 5 5 6 8 13 16 15 15 20 32 45 57 69 74 70 68 70 71 70 67 65 63 64 65 66 66 66 64 62 61 63 65 65 64 63
31 31 32 30 29 32 32 35 40 41 53 64 53 39 34 29 29 31 31 32 32 32 33 32 33 33 33 35 37 38 40 43 45 46 50 54 57 61 66 70 73 73 74 75 74 72 70 72 77 74 63 48 32 21 16 10 6 5 6 5 5 6 5 5 5 7 11 15 17 17 18 23 30 37 44 48 51 57 62 64 64 64 65 66 65 63 63 63 63 63 61 59 59 59 57 54 53
32 32 32 32 32 32 32 34 34 34 50 68 64 52 38 28 30 32 33 35 35 34 34 34 35 35 36 37 39 41 43 45 49 50 52 55 57 62 66 68 72 74 74 73 74 75 73 74 79 75 58 40 27 22 17 11 7 6 5 5 5 5 5 6 5 6 10 15 18 19 20 22 23 26 29 33 38 47 55 57 58 61 66 67 65 61 60 60 60 59 57 54 51 48 47 46 46
33 32 33 33 34 35 38 42 38 34 42 54 59 56 41 31 33 35 35 37 36 35 35 35 36 37 37 39 40 41 42 46 51 54 55 57 58 62 66 68 71 72 71 73 76 76 75 78 81 72 51 32 25 24 20 14 9 7 6 5 6 5 5 6 6 5 8 15 20 20 21 22 23 25 28 31 35 41 47 51 54 58 61 60 55 51 50 50 50 49 47 45 43 41 42 42 43
Wind_Speed
12 11 10 10 10 8 5 4 4 2 2 5 5 7 6 8 10 10 12 11 8 4 3 5 7 8 6 2 6 5 2 5 4 6 7 8 9 3 11 20 14 16 15 6 8 4 2 2 6 9 9 6 6 6 6 7 6 5 3 2 2 3 4 5 6 7 8 9 10 9 9 9 8 9 9 10 10 11 11 10 10 9 9 9 8 7 6 6 5 6 6 6 7 7 8 8 8
12 11 10 9 8 7 5 3 4 3 2 6 5 8 9 8 6 9 15 10 8 6 1 2 6 7 4 4 7 7 2 1 3 8 7 7 6 1 9 19 19 17 14 4 5 4 3 3 4 8 9 7 6 6 7 7 6 4 4 3 4 5 6 7 8 9 10 11 11 11 10 10 10 11 11 11 11 11 10 10 10 9 9 8 8 7 6 5 5 5 5 6 6 7 8 7 7
13 12 10 9 7 7 6 3 6 5 5 8 6 6 7 7 5 9 15 8 6 6 3 2 2 4 1 4 8 8 5 4 5 8 5 3 3 5 11 17 21 19 12 2 3 2 3 4 5 7 10 9 7 7 8 7 6 4 4 3 5 6 8 9 10 11 11 12 12 12 12 11 12 12 12 11 11 11 9 9 9 9 8 8 7 7 6 5 5 5 6 6 7 7 6 6 6
14 12 10 9 7 6 6 5 6 7 8 9 6 4 4 9 11 11 13 7 4 2 5 4 4 2 2 5 10 10 7 7 7 5 2 2 4 7 10 13 16 15 8 4 4 2 4 6 7 8 10 9 6 7 7 6 5 4 4 4 6 7 9 10 11 12 12 13 13 13 13 12 12 12 11 11 10 9 9 9 8 7 7 6 6 6 5 5 5 6 6 7 7 6 6 6 7
15 13 12 11 8 5 6 6 6 7 8 7 5 6 7 11 12 10 12 7 1 3 6 5 6 8 6 6 11 11 7 7 7 2 2 3 6 8 9 9 10 8 5 6 9 10 10 10 9 8 9 8 6 7 7 6 6 5 5 5 7 8 9 11 12 13 13 13 13 13 13 13 12 12 11 10 9 8 8 8 7 7 6 5 5 5 5 5 6 6 7 7 7 6 7 7 7
16 14 13 13 11 9 8 8 7 6 6 7 7 9 10 10 11 12 12 7 5 2 3 4 7 11 10 8 11 10 6 6 4 4 3 5 8 8 7 6 7 8 8 9 12 12 12 11 8 7 8 8 7 8 7 7 6 6 6 7 7 8 10 12 14 14 14 14 14 14 13 13 12 11 10 10 9 8 7 6 6 6 5 5 5 5 5 6 7 7 7 7 6 7 8 8 8
14 14 13 13 13 12 12 9 8 6 6 8 10 9 8 9 12 14 11 8 9 8 2 3 8 11 11 11 12 9 5 4 5 5 4 7 9 8 7 4 7 9 10 12 13 13 13 11 9 9 9 9 8 8 7 7 7 7 7 7 8 9 11 13 14 15 15 14 14 13 13 12 12 11 10 9 8 7 6 5 6 5 5 5 5 5 6 7 7 7 6 5 6 7 8 8 8
14 13 12 13 11 11 12 9 7 7 9 11 13 11 9 12 15 12 10 11 11 12 7 6 9 10 12 11 10 7 4 4 6 6 5 7 8 7 7 4 7 11 12 13 13 13 14 12 11 11 10 9 9 8 7 7 7 7 7 8 8 10 12 14 14 14 15 14 13 13 13 12 12 11 10 9 8 6 5 5 5 5 4 5 5 6 6 6 7 6 5 5 6 7 8 8 8
14 14 12 12 11 8 8 7 5 7 10 12 14 12 13 17 17 11 11 13 12 12 10 9 8 10 12 10 8 5 4 5 5 6 5 6 6 7 7 5 9 13 14 14 14 15 15 13 11 10 10 10 9 8 7 7 7 6 7 7 7 9 11 12 13 14 14 14 13 13 13 12 12 11 10 9 8 6 6 5 5 5 4 5 6 6 6 6 6 5 4 4 6 7 8 9 8
13 13 11 11 11 8 6 3 3 6 8 10 11 12 13 13 11 10 13 14 14 11 8 8 10 11 11 9 7 6 6 5 5 5 5 4 4 7 6 7 11 14 15 15 16 16 16 14 10 9 10 10 10 9 6 6 6 6 6 7 7 8 10 11 12 14 14 14 13 13 12 12 12 11 10 9 8 6 6 5 5 5 5 5 5 5 5 4 4 4 3 4 6 8 8 9 10
12 11 11 10 9 7 5 1 3 5 5 7 9 10 7 6 8 10 13 15 12 8 7 9 13 12 9 8 6 6 6 4 3 5 4 2 3 5 6 9 10 12 16 17 17 18 17 15 11 10 9 10 10 9 6 7 7 6 6 6 7 8 9 10 12 14 14 14 13 13 12 11 11 11 10 9 8 6 5 5 5 5 5 5 4 4 3 3 3 3 3 4 5 7 8 9 10
13 11 12 11 8 6 2 1 1 2 4 6 8 6 0 8 11 11 11 13 10 8 8 9 11 8 5 4 3 4 3 2 3 4 3 3 3 2 7 11 10 13 18 18 18 18 16 13 11 11 10 9 9 7 7 7 6 6 6 6 7 8 9 9 11 12 13 13 13 13 11 11 10 10 9 9 8 7 6 5 4 5 5 5 4 3 2 2 2 2 3 3 5 7 8 9 9
14 12 11 11 7 3 1 2 1 1 4 4 4 6 6 6 7 9 11 12 9 8 8 7 8 5 3 2 1 1 2 3 3 3 4 5 4 2 6 11 12 15 17 17 17 15 14 13 12 12 11 10 9 7 7 7 6 6 7 7 7 8 8 8 8 10 10 10 11 11 10 9 9 9 8 7 7 7 6 5 5 5 5 4 3 2 2 2 2 3 3 4 5 6 8 9 8
15 13 12 10 6 3 3 4 4 2 3 4 6 10 10 7 6 7 9 10 8 7 7 8 7 4 2 2 1 1 2 3 3 4 4 4 4 3 4 8 11 15 16 16 15 14 15 16 14 12 12 12 9 7 6 6 6 7 7 7 7 7 7 6 6 7 8 8 8 8 8 7 7 7 7 6 6 6 6 6 5 4 3 2 2 1 1 2 2 3 4 4 4 5 6 8 7
15 15 13 10 5 5 6 7 7 4 6 10 9 11 13 10 8 8 7 7 7 7 6 7 5 3 4 2 3 2 3 4 5 4 3 2 3 3 4 4 9 13 14 16 16 16 16 17 16 14 14 14 10 7 6 5 6 6 7 7 7 7 6 6 5 6 7 7 7 6 6 6 6 6 6 5 5 5 5 5 4 3 2 1 1 0 1 2 2 3 3 3 3 3 5 7 7
15 15 13 10 6 7 9 9 6 4 5 9 5 8 10 5 4 6 6 5 6 7 6 7 6 5 5 3 1 2 4 5 5 4 3 2 2 3 3 4 7 10 12 15 16 16 18 19 17 16 16 14 9 7 6 6 6 6 7 7 7 7 6 6 6 6 6 7 7 6 6 6 6 6 6 5 4 3 4 4 4 3 3 3 2 1 1 2 2 2 3 3 3 2 3 6 6
15 15 12 10 7 8 9 6 4 2 2 6 2 4 5 2 3 6 7 7 7 7 7 7 7 6 5 5 3 3 4 4 4 4 3 2 2 3 4 5 6 9 11 13 14 17 19 18 17 19 18 14 9 7 7 7 7 7 7 7 7 6 6 6 5 5 4 4 5 5 5 6 6 6 6 6 5 4 3 4 4 5 5 4 3 3 2 2 2 2 2 3 3 3 2 4 5
15 15 12 11 9 9 7 3 2 3 0 5 3 4 3 3 6 8 7 7 7 6 6 6 6 7 7 5 4 4 3 3 3 3 3 3 4 5 6 6 7 10 11 12 14 16 18 18 21 22 18 12 9 8 7 7 7 6 6 6 5 4 4 4 4 4 3 3 3 3 3 4 5 5 6 6 6 5 4 4 4 5 5 5 4 3 3 2 2 2 2 3 3 4 3 2 3
15 15 13 11 10 8 6 3 1 4 1 3 4 5 5 6 7 6 6 7 8 7 6 7 6 7 7 6 5 4 4 4 3 3 3 4 6 7 7 8 9 11 12 12 12 11 13 14 20 19 13 10 8 7 6 6 6 5 4 4 3 3 3 3 3 3 2 2 3 3 3 3 4 4 5 6 6 6 6 6 5 5 5 5 5 4 4 3 3 3 3 3 3 4 4 1 2
13 13 13 10 9 9 6 4 3 3 2 2 5 6 6 8 7 7 7 6 8 9 8 9 7 6 6 5 6 5 5 5 4 4 5 7 8 9 8 8 9 11 10 8 7 7 11 15 16 13 11 9 8 7 6 6 5 5 4 3 3 3 2 2 2 2 1 2 3 4 4 4 4 4 5 6 6 7 7 7 7 6 5 5 5 5 5 5 4 4 4 3 3 4 4 2 1
11 10 9 6 5 7 5 3 2 1 1 2 4 6 7 8 8 9 7 5 6 7 7 8 6 4 4 5 6 6 7 7 7 8 9 10 10 9 8 8 8 8 8 7 10 16 19 17 13 12 10 8 7 7 5 4 4 4 3 3 3 2 2 1 1 1 1 2 3 4 5 5 5 5 5 6 6 7 8 8 7 7 6 5 5 6 6 6 6 5 5 4 3 3 4 3 1
10 9 7 4 3 4 2 2 3 3 3 3 5 8 9 9 9 10 8 4 4 4 4 5 3 2 3 5 7 8 9 10 11 11 11 11 10 10 9 8 8 10 11 14 17 19 17 13 11 10 8 7 6 5 3 2 2 2 2 1 1 0 0 1 1 2 2 3 3 4 5 5 6 5 6 6 6 6 8 9 9 8 8 7 7 7 7 7 7 7 6 6 5 4 4 4 3
7 7 7 6 4 2 2 3 6 5 5 7 9 11 10 9 9 9 8 4 2 3 3 3 2 3 4 6 8 10 12 13 14 14 13 11 10 10 9 10 15 18 19 20 18 17 14 11 9 8 7 5 4 2 1 0 0 1 0 1 2 2 2 3 3 4 4 5 5 5 6 6 6 6 6 7 7 7 8 9 9 10 9 9 8 9 8 8 8 8 7 7 6 5 5 6 6
3 6 8 6 5 4 4 6 9 8 9 11 10 8 7 8 7 7 7 6 4 5 4 4 4 4 6 8 10 13 15 15 15 14 13 11 10 10 13 18 22 23 22 20 17 14 11 9 9 7 5 4 4 3 2 2 2 2 1 1 2 3 3 3 4 5 6 6 7 7 7 7 7 8 8 8 8 8 9 10 10 10 11 10 10 11 10 10 10 9 9 8 8 7 7 7 7
2 5 7 5 6 7 6 8 12 14 13 11 8 6 6 7 6 7 8 8 7 7 7 7 6 7 8 11 14 16 17 16 15 14 13 12 11 13 18 23 25 23 21 19 17 14 12 10 9 6 5 4 4 4 4 4 3 3 3 3 3 4 4 4 5 7 7 8 8 9 9 9 9 9 9 9 9 9 9 10 11 11 12 12 12 12 11 11 11 11 10 10 9 9 9 8 8
3 7 10 9 7 6 9 14 16 16 13 9 6 5 5 6 8 8 9 9 9 8 8 9 9 10 11 14 17 17 17 16 14 13 13 13 13 16 22 25 24 23 21 20 17 15 12 11 9 7 5 4 4 4 3 3 3 4 5 6 6 6 7 8 10 11 11 11 11 10 10 11 11 11 11 11 11 11 11 11 12 12 13 13 13 13 12 12 12 12 12 11 11 10 10 10 9
3 6 12 11 8 10 15 18 18 15 12 8 4 4 7 9 10 10 10 9 8 9 10 11 12 13 14 17 19 18 17 16 14 13 13 13 15 19 24 25 25 23 21 19 17 15 11 9 8 7 5 4 4 2 2 3 4 6 7 7 8 8 8 10 12 13 14 13 12 12 12 12 13 14 14 14 14 14 14 13 13 14 14 14 14 14 14 14 14 13 13 13 12 11 11 11 11
6 5 12 11 10 17 21 18 17 12 9 8 4 6 10 11 11 11 9 8 7 9 11 13 14 15 17 19 19 18 18 16 15 14 13 14 16 19 23 24 24 22 20 18 17 14 11 8 7 6 5 4 3 3 4 5 6 8 8 8 9 9 9 10 11 12 12 13 13 14 14 14 15 15 16 16 16 16 16 16 16 16 16 16 16 16 16 15 15 15 15 14 14 13 12 12 12
10 3 8 14 16 21 21 17 14 8 6 8 7 10 12 11 12 11 9 9 9 11 14 16 16 16 18 19 18 17 17 17 16 15 14 14 15 17 20 22 22 21 20 18 17 14 10 9 7 6 5 4 3 5 7 8 9 9 9 9 9 10 10 11 11 12 12 14 15 15 16 16 16 17 17 16 17 17 18 18 18 18 18 18 17 17 17 17 17 17 17 16 16 15 15 14 14
11 5 6 18 22 20 19 15 10 7 7 7 6 10 12 12 12 10 9 9 9 12 15 16 16 17 18 17 16 16 17 17 16 15 15 15 15 16 17 19 20 20 18 17 15 12 9 8 7 6 5 4 6 7 8 9 9 9 9 10 10 11 12 12 13 13 14 16 17 18 18 19 19 19 18 18 17 17 18 19 19 20 20 20 19 19 18 18 18 18 18 18 18 17 17 17 17
12 11 12 21 23 21 19 12 8 8 7 3 4 10 12 12 11 10 10 9 10 13 15 16 16 17 17 16 16 16 17 17 17 16 16 16 15 15 15 16 16 16 15 13 11 9 8 8 7 6 6 7 8 8 8 8 9 9 10 11 13 14 15 16 16 17 17 18 19 21 21 22 22 21 21 20 19 19 19 19 20 20 20 20 20 20 20 19 19 19 19 19 19 19 19 19 19
10 14 18 20 19 20 18 11 10 9 4 4 7 10 12 12 11 10 10 11 12 15 17 17 16 17 17 16 16 16 16 16 17 17 16 16 15 15 14 14 13 12 11 10 9 8 8 8 8 8 8 9 9 9 9 10 11 12 13 14 15 17 18 20 21 21 21 22 22 23 24 24 24 24 24 23 22 21 21 21 21 21 20 20 20 21 21 21 20 20 20 20 19 19 19 20 20
10 14 19 19 17 18 16 13 12 7 4 7 8 11 12 11 10 10 11 12 14 15 16 15 15 16 17 16 16 17 17 17 17 17 16 15 14 14 13 12 11 10 9 9 9 9 8 8 9 9 9 10 10 10 11 12 13 15 16 17 19 20 22 23 24 25 25 25 25 24 24 24 25 25 25 25 25 24 23 23 23 23 22 22 21 20 21 21 21 20 20 20 20 20 20 20 21
12 13 15 18 19 17 15 13 13 7 5 6 7 11 10 9 9 9 9 11 13 13 13 14 14 15 17 17 17 16 17 17 16 16 16 15 14 13 12 11 11 10 10 10 9 8 8 8 8 9 10 11 11 13 14 15 16 17 19 21 22 24 25 27 27 27 27 26 26 24 24 23 23 23 24 24 25 26 26 25 25 25 25 24 23 22 21 21 21 21 21 20 20 19 20 21 22
16 19 17 16 16 14 11 10 11 8 5 6 8 10 9 8 8 7 7 7 8 10 11 13 14 17 19 18 18 17 17 17 16 17 17 16 15 14 13 12 12 11 10 10 8 8 7 8 9 10 12 13 14 16 17 18 19 20 22 24 26 27 28 29 29 28 27 26 25 24 23 22 22 21 21 22 23 25 26 26 27 28 27 26 25 25 24 22 21 21 21 21 21 20 20 21 22
13 18 18 17 13 12 10 8 9 8 6 8 9 9 9 8 6 3 4 2 3 6 10 13 16 19 21 20 19 18 18 18 18 17 17 17 16 15 14 13 12 11 10 9 9 8 9 10 12 13 14 15 17 18 19 20 22 23 25 27 28 28 28 28 28 27 26 26 25 24 23 23 23 22 21 21 22 23 24 25 26 27 27 27 26 25 25 24 23 22 21 21 22 22 21 21 21
9 10 13 18 15 11 11 8 10 9 8 9 8 8 8 7 5 2 1 2 4 2 4 8 14 19 21 20 19 18 18 18 18 18 17 16 15 14 13 12 11 11 10 10 10 10 11 13 14 15 17 18 19 20 21 22 23 25 27 27 26 26 26 26 26 26 26 25 25 25 25 24 24 24 23 22 22 22 23 24 24 26 26 25 25 24 24 24 24 23 23 22 22 21 21 22 22
8 7 7 15 16 12 11 8 10 11 9 8 8 8 8 7 4 4 4 4 8 7 4 2 8 18 23 20 18 18 19 19 18 17 16 15 14 13 12 12 11 11 11 11 11 12 14 15 16 18 19 19 20 21 22 23 25 27 27 26 25 24 25 25 25 25 26 26 26 26 26 25 26 26 25 25 24 23 23 23 24 25 25 24 24 24 24 24 24 23 23 24 24 23 22 22 23
6 6 5 12 15 12 10 9 10 9 8 8 8 8 8 7 5 4 5 5 7 6 3 3 4 18 26 20 19 21 20 19 18 16 16 15 14 13 12 11 10 10 11 12 13 15 16 17 18 19 20 21 22 23 24 25 26 27 26 25 24 25 25 25 26 26 26 27 28 28 27 27 27 27 27 27 27 26 24 24 23 24 24 24 24 25 25 25 25 25 24 24 24 25 24 24 24
4 4 4 10 13 12 10 10 12 10 7 7 7 9 9 7 6 6 5 5 5 6 5 3 6 19 22 15 17 23 21 18 17 16 15 15 13 12 11 9 8 9 11 13 15 16 18 19 20 21 22 23 23 24 24 25 26 26 25 25 26 26 26 26 27 27 27 28 28 29 29 28 28 28 29 29 29 28 27 26 25 24 24 24 26 26 26 26 26 27 26 25 25 24 25 25 25
4 4 6 8 9 9 9 11 14 10 7 8 7 8 10 8 6 4 4 4 5 7 8 8 12 18 16 11 14 20 19 17 15 14 13 12 12 11 9 7 8 10 12 14 15 16 18 20 21 22 22 23 23 23 23 24 25 25 25 26 26 27 27 27 28 28 28 29 29 30 30 30 30 30 30 29 29 29 29 28 27 26 25 25 26 27 27 27 27 27 27 27 26 25 24 25 26
3 3 5 8 7 7 6 8 13 11 8 10 8 5 6 8 6 4 6 7 6 8 9 10 12 14 15 14 14 16 16 15 14 13 12 11 11 11 9 7 8 9 11 13 15 17 19 20 21 21 22 22 22 22 22 23 24 24 25 26 26 27 27 28 27 27 27 28 29 30 30 30 30 30 31 30 30 29 28 28 28 27 27 26 27 27 27 27 27 27 27 27 26 26 25 24 25
1 2 4 7 8 9 8 8 12 10 8 9 10 7 4 8 10 7 8 9 8 8 8 10 13 14 15 15 15 15 15 15 16 15 14 13 12 12 10 9 9 10 12 14 15 17 18 19 20 21 21 21 21 21 22 23 24 24 25 26 27 27 27 27 27 27 27 26 27 28 28 28 28 29 28 28 28 27 27 26 26 26 27 27 27 27 27 27 27 27 27 27 27 26 25 23 23
2 2 3 5 6 8 7 7 10 9 7 8 12 12 7 10 12 9 9 11 11 12 10 10 13 15 15 15 15 16 15 17 18 17 16 13 13 14 12 11 11 12 13 14 15 15 15 17 18 19 20 20 20 21 22 23 24 24 25 26 26 25 26 26 26 26 25 25 24 25 25 25 25 25 24 24 23 23 23 22 22 22 23 24 24 24 24 25 26 26 26 26 26 25 25 23 22
2 2 2 3 3 5 6 9 12 12 8 7 12 13 7 10 15 11 9 13 14 14 13 12 12 13 14 15 16 17 17 18 17 17 15 13 13 15 15 13 11 12 13 15 16 14 13 15 17 18 19 20 21 21 22 22 24 25 24 23 23 24 24 24 24 23 23 23 22 21 21 20 20 20 19 19 18 18 18 17 17 17 17 18 18 19 20 21 22 23 23 23 23 22 22 21 20
3 2 2 1 1 4 6 6 10 11 7 8 11 12 8 9 15 14 11 13 13 12 12 12 13 12 13 14 15 17 19 19 18 17 17 17 16 18 18 16 13 13 15 18 18 14 13 15 17 18 20 21 21 21 21 22 24 24 22 21 22 22 22 22 21 21 20 20 19 18 17 16 15 15 15 14 14 14 13 13 13 12 12 12 13 13 15 16 17 18 18 19 19 18 18 18 17
2 1 1 1 1 3 2 1 6 6 4 8 10 12 11 7 11 14 12 12 10 7 7 11 14 14 13 13 13 15 18 19 19 19 20 20 18 20 21 18 15 15 16 17 14 13 14 16 17 19 20 21 20 20 21 23 22 20 19 20 21 21 21 20 19 19 18 18 16 15 14 13 12 12 11 11 11 12 11 11 12 11 11 10 10 10 10 11 12 12 13 14 14 14 14 14 14
3 3 3 2 1 2 0 2 4 3 2 7 8 11 14 10 10 12 11 10 9 7 6 7 9 10 9 10 11 14 17 18 19 19 21 21 20 21 22 17 14 14 14 14 12 13 16 17 17 19 20 20 20 20 22 21 19 17 17 18 19 19 18 18 18 18 18 16 15 13 12 12 11 10 9 10 10 11 10 11 11 11 11 10 10 9 8 7 8 8 10 11 11 12 12 12 12
7 5 4 3 1 1 1 0 1 2 4 5 7 9 11 14 15 13 12 12 11 10 7 5 6 7 7 7 9 12 16 19 20 19 20 22 21 23 21 17 15 15 13 12 12 14 16 18 18 19 20 20 20 21 22 19 15 14 16 17 17 17 17 16 16 16 17 15 14 13 12 12 11 10 10 11 11 11 10 10 10 10 10 10 10 10 9 8 7 7 8 9 10 10 10 11 11
8 7 3 2 2 3 2 2 1 4 5 6 8 7 7 12 12 9 9 8 8 9 8 6 6 6 7 8 8 10 14 18 20 20 20 20 20 22 22 18 17 17 14 13 14 16 17 18 19 20 21 21 21 22 22 18 14 14 15 15 16 16 16 16 16 16 16 15 13 13 12 12 11 11 11 11 11 11 10 10 10 10 10 10 10 10 10 9 9 9 9 8 9 10 10 11 11
4 4 2 3 2 2 2 3 2 3 2 5 7 5 4 6 4 4 5 5 7 7 6 8 7 7 9 9 10 10 11 15 18 20 19 18 19 22 21 18 18 17 15 14 15 16 17 18 20 21 21 21 22 23 22 17 14 14 14 14 15 16 16 15 15 15 15 14 13 12 12 12 11 10 10 10 10 10 10 9 9 10 10 10 10 10 10 9 9 9 8 7 8 9 10 10 10
3 3 3 3 3 4 3 2 3 2 1 2 6 6 7 8 8 9 8 8 8 6 5 8 6 7 9 8 7 7 8 10 13 17 18 17 19 20 19 17 17 16 13 13 15 16 17 17 19 20 20 21 22 22 21 17 14 14 14 14 15 15 16 16 15 15 14 13 13 12 11 11 11 10 10 9 9 8 8 8 8 9 10 10 9 9 9 9 8 9 9 7 7 8 9 9 10
3 4 6 4 3 4 4 2 1 0 0 2 5 7 11 11 11 11 8 7 8 6 7 7 6 6 6 4 4 4 5 7 9 13 15 16 18 18 17 17 16 15 12 12 14 16 16 16 18 20 21 21 22 22 20 17 15 14 14 14 14 15 16 16 16 15 14 13 12 11 10 10 10 10 9 8 8 8 8 8 8 9 9 9 9 8 8 8 8 9 9 9 8 8 8 9 10
6 6 6 5 5 5 4 2 2 2 0 3 5 8 11 9 6 7 6 4 4 5 6 7 7 6 4 2 3 3 4 6 8 10 13 16 18 18 19 19 19 16 14 12 13 15 16 18 20 21 22 21 21 22 20 17 15 15 14 13 13 14 15 16 16 15 15 14 13 11 10 8 9 9 7 6 6 7 8 9 9 9 9 9 8 8 7 7 8 8 8 8 8 8 8 9 9
8 6 5 6 6 4 4 2 1 1 1 3 4 7 10 11 10 8 6 4 4 4 6 6 6 5 4 4 5 5 5 6 7 9 10 13 15 16 18 20 19 17 15 14 14 15 17 20 21 22 23 21 20 21 20 18 16 15 14 13 12 13 14 15 16 15 14 13 13 12 10 9 8 8 7 7 8 8 8 8 8 8 8 8 8 8 7 7 8 8 8 8 8 9 9 10 10
7 7 7 8 9 7 6 5 3 2 2 2 3 4 6 9 10 8 7 8 7 6 6 5 4 4 5 6 7 7 6 6 6 7 8 10 11 13 16 19 19 18 17 15 15 16 18 20 21 22 23 21 20 20 19 18 17 16 15 13 12 12 13 14 14 14 13 12 12 12 11 9 9 9 9 9 9 9 8 8 7 7 7 7 7 7 7 7 8 8 8 8 9 10 10 11 11
6 7 8 9 10 9 7 8 7 4 2 2 1 3 7 9 8 8 9 10 9 8 7 6 5 5 6 6 7 8 7 7 6 7 8 9 10 12 16 18 19 19 17 15 14 16 18 19 20 22 21 19 18 18 17 16 16 16 15 14 13 13 12 13 13 14 12 11 10 10 10 9 9 9 9 9 8 8 7 7 6 6 6 6 7 7 8 8 8 8 9 9 10 11 11 11 12
7 8 9 10 11 9 6 5 8 8 5 3 3 3 10 12 11 11 11 11 11 10 9 9 8 8 7 7 7 7 7 6 7 7 8 9 9 12 15 17 17 17 16 15 14 16 17 18 19 20 18 15 16 16 15 15 15 15 15 14 14 14 13 13 13 13 12 10 9 9 10 10 9 9 9 8 7 7 6 6 6 5 5 6 7 7 8 8 9 9 9 10 10 10 10 11 11
Wind_Direction
247 247 250 255 258 255 252 245 250 272 274 289 307 316 314 324 340 0 356 348 345 321 258 271 293 315 329 305 253 263 10 1 318 248 247 201 191 185 14 15 37 24 7 341 298 261 152 143 173 181 178 185 212 215 207 203 201 198 184 156 119 93 84 82 80 82 82 81 81 81 84 84 85 85 85 88 89 87 79 70 67 69 70 68 66 64 64 66 68 70 71 73 74 70 66 60 56
246 245 247 249 250 245 243 234 252 278 280 283 305 314 319 328 325 6 358 341 328 323 312 289 300 305 281 295 273 241 153 24 248 222 226 192 203 318 26 25 38 31 16 353 268 243 160 134 193 184 167 186 211 208 201 195 193 188 171 150 113 95 89 88 86 86 85 84 81 80 81 82 84 85 88 89 88 85 79 71 66 64 61 61 61 59 60 64 69 73 72 72 71 66 61 60 61
242 244 247 244 241 233 238 236 246 263 272 279 305 324 340 352 322 349 353 339 324 321 1 340 302 19 126 249 257 224 215 243 222 208 214 175 167 51 42 38 45 42 40 80 248 268 160 170 218 187 167 189 207 203 196 187 184 178 162 129 97 88 86 87 87 89 89 88 85 83 82 83 84 84 85 83 82 79 77 74 72 68 59 54 52 50 51 56 65 69 70 68 66 64 62 62 62
239 243 246 241 239 228 238 238 237 253 271 285 305 329 342 345 338 346 346 334 324 336 17 346 212 117 61 232 224 223 246 248 225 201 188 100 97 57 45 54 61 52 58 153 194 181 186 211 222 192 175 190 207 199 191 184 180 172 153 116 98 92 90 90 92 93 93 91 88 87 86 86 85 84 83 81 80 76 76 75 74 70 59 51 46 43 41 43 52 59 63 63 63 64 64 63 62
238 241 244 242 244 237 238 239 242 254 274 295 315 323 308 320 332 337 335 319 278 75 28 350 227 229 254 232 215 229 247 218 203 149 67 71 75 65 53 67 91 93 108 174 192 188 195 206 209 191 179 190 203 197 190 185 180 169 149 121 109 103 99 98 98 98 96 95 92 91 91 90 89 87 87 87 88 83 80 78 77 71 60 50 42 40 40 39 43 48 55 59 63 67 67 66 65
238 238 241 241 243 246 245 243 247 257 281 300 308 310 301 309 318 313 313 290 221 140 15 320 260 249 249 236 219 229 224 180 146 79 57 68 70 72 74 87 120 139 160 186 195 192 193 195 195 184 181 191 197 194 190 188 181 167 150 129 120 112 106 101 99 99 97 98 96 95 94 93 92 90 89 90 91 87 82 82 82 74 64 52 42 40 43 46 44 45 50 57 64 68 68 67 66
235 232 235 238 239 242 242 244 249 269 296 296 296 288 284 294 297 296 292 270 226 212 260 265 260 256 240 230 218 213 192 145 88 75 66 70 71 81 98 124 153 166 182 192 193 190 189 188 185 176 177 186 190 190 188 189 182 168 151 134 129 117 106 101 100 100 99 100 98 97 95 95 94 93 93 93 91 87 82 79 79 75 71 64 56 50 50 52 51 49 49 57 66 67 68 66 65
232 229 230 229 229 230 232 243 257 284 297 290 289 276 273 283 282 281 261 245 227 225 227 220 245 242 220 214 203 190 153 105 87 78 71 75 72 93 119 146 172 182 192 193 193 195 193 189 183 172 172 176 176 182 186 190 182 168 153 139 132 116 106 103 102 104 104 103 102 100 99 99 100 102 102 103 105 103 99 88 78 74 74 74 73 64 58 56 54 52 48 55 63 62 63 62 59
231 229 227 222 222 219 225 246 274 293 295 288 283 277 277 277 270 250 230 233 232 240 237 219 219 207 205 203 187 168 122 99 91 75 78 91 85 112 140 167 182 193 201 200 203 203 195 189 181 168 165 165 165 170 179 187 179 168 157 146 134 119 113 110 108 109 108 106 104 103 103 106 108 109 109 111 113 113 110 100 90 82 78 78 78 73 65 59 55 52 44 48 54 53 54 55 51
226 225 222 217 221 220 230 259 313 298 294 293 282 284 282 268 254 215 215 235 238 239 227 199 198 199 209 203 175 145 127 109 88 82 93 109 113 127 155 189 190 197 207 209 209 205 197 187 175 166 161 158 161 160 166 189 182 166 158 152 139 126 123 120 116 113 111 109 107 105 106 109 111 112 112 113 114 114 110 105 103 97 92 87 83 80 75 69 63 56 46 44 50 51 50 52 49
221 220 218 213 220 229 241 290 337 295 301 310 301 308 286 210 173 180 209 229 222 204 192 196 207 212 212 195 162 142 132 113 103 103 101 106 121 134 183 200 193 201 213 218 213 208 203 191 167 155 155 158 159 152 171 201 188 165 155 153 146 134 129 127 121 117 116 115 114 113 115 118 121 121 119 118 115 114 114 115 114 109 107 103 97 91 83 76 67 60 49 47 55 55 52 52 48
217 216 218 217 226 236 244 351 308 303 348 331 325 345 159 148 146 168 198 208 190 178 194 200 198 193 197 189 149 139 125 126 137 123 110 112 130 166 194 198 202 206 210 213 215 212 200 186 163 149 154 160 151 151 185 197 182 170 163 155 152 146 138 133 127 123 120 121 122 123 127 131 130 126 122 121 120 120 125 127 127 120 120 118 117 109 91 71 53 43 35 41 54 59 58 54 50
217 215 217 219 224 221 161 122 155 344 6 345 357 52 80 100 136 172 189 194 184 184 185 162 153 146 183 216 127 127 126 146 140 131 126 125 148 207 199 196 208 213 209 205 209 209 190 179 169 156 162 158 145 163 188 186 176 175 174 165 161 159 153 148 141 134 128 125 124 124 130 131 126 123 122 123 124 128 133 136 141 135 130 130 125 114 88 56 31 19 18 26 40 57 62 59 57
216 217 216 217 201 153 150 128 105 40 53 87 82 79 80 91 127 161 180 183 172 168 156 135 134 137 175 241 252 205 152 141 124 124 130 135 154 189 203 198 212 220 216 205 196 189 184 183 171 156 160 149 143 175 183 180 179 177 179 173 169 168 167 167 156 143 134 130 128 128 132 130 128 127 126 128 131 136 140 142 146 142 136 132 122 75 23 21 13 4 7 16 28 50 61 61 60
211 215 218 213 178 140 141 122 97 64 99 113 102 101 103 108 119 134 156 159 148 140 126 118 117 141 167 226 258 207 128 120 125 126 125 148 152 166 179 182 212 224 218 203 185 171 175 176 164 154 152 140 144 175 177 180 183 183 183 178 178 173 169 175 166 149 140 138 138 139 142 142 141 137 137 146 156 156 151 149 143 143 164 170 178 295 331 342 351 355 357 3 14 36 57 59 57
206 211 217 210 181 150 136 114 96 63 115 134 114 127 131 115 113 126 136 134 125 114 102 97 98 126 148 158 209 146 111 119 138 140 128 144 140 144 150 152 199 224 218 200 181 170 176 171 159 151 144 137 150 172 173 182 189 189 186 183 183 174 171 177 174 166 158 153 151 151 155 160 160 156 160 168 178 174 160 157 153 166 196 205 208 228 279 306 321 343 348 345 346 358 47 60 62
207 210 214 207 184 159 146 112 96 35 140 155 138 168 183 257 150 119 116 120 105 92 89 87 95 110 114 122 124 102 101 115 136 136 125 133 131 132 139 148 188 213 207 194 181 177 184 178 162 151 141 140 159 174 181 185 188 188 186 188 184 177 178 182 186 184 179 172 167 168 171 175 178 175 173 179 189 191 181 170 170 181 196 203 212 226 240 282 303 326 337 327 321 323 14 56 65
209 212 217 210 188 169 167 128 74 342 176 157 149 176 219 228 153 118 102 103 87 73 81 85 92 103 108 119 117 104 103 103 114 126 134 132 123 126 143 160 187 201 188 181 182 189 203 191 161 143 134 142 163 176 183 181 181 181 183 185 177 176 183 188 196 198 195 202 202 201 199 197 199 197 191 192 196 199 203 200 196 196 199 202 210 228 237 257 285 301 308 307 310 312 330 41 63
211 215 221 218 200 182 183 188 305 331 331 174 158 147 168 180 160 119 91 85 86 81 79 83 88 101 113 123 121 122 123 122 129 135 130 119 122 127 146 168 188 198 190 186 194 208 216 183 148 132 130 147 157 159 159 154 157 159 163 164 156 167 182 189 199 205 213 223 228 227 226 225 222 223 221 217 213 208 210 213 213 213 212 209 211 222 230 235 251 268 276 288 300 302 301 352 65
211 216 222 224 215 199 196 230 275 334 348 187 162 147 157 167 149 110 83 66 86 92 88 90 92 99 110 123 129 136 137 137 137 130 120 116 123 132 150 172 183 194 200 206 198 162 142 134 128 127 131 137 134 133 129 128 134 139 146 146 149 166 181 189 199 212 241 250 245 238 235 237 234 237 244 247 241 231 225 220 219 224 224 222 225 227 231 233 237 249 255 265 279 288 284 279 80
203 209 217 213 204 196 200 248 258 68 84 147 174 175 166 157 139 112 88 64 81 90 91 91 93 97 112 134 141 144 141 137 133 126 125 126 128 135 152 170 178 190 197 183 149 131 126 123 126 130 130 131 134 133 129 130 129 136 146 145 147 157 165 166 178 213 288 281 274 262 251 246 243 242 245 253 255 252 249 243 239 241 240 238 240 241 244 244 240 245 250 252 254 260 266 264 248
203 206 210 199 177 173 198 247 189 147 152 161 176 169 150 134 124 111 106 98 70 66 67 73 92 114 137 147 141 142 139 135 131 126 126 127 130 136 149 162 165 165 159 149 140 138 138 137 136 138 143 147 146 141 141 147 141 149 165 158 123 121 100 41 19 353 341 330 325 312 295 280 269 263 258 257 254 253 256 258 258 256 257 254 252 252 253 255 250 247 249 252 250 238 240 248 246
207 217 222 228 236 222 239 183 156 157 167 160 153 147 132 116 113 110 118 126 85 71 63 74 119 145 152 144 136 137 137 134 129 124 124 126 132 137 143 147 146 143 142 145 149 152 153 150 149 153 161 164 166 170 172 255 271 182 230 316 319 317 316 328 330 326 325 324 325 322 317 307 298 292 286 278 265 256 253 256 259 259 260 260 263 262 257 257 257 256 254 255 255 248 241 240 239
204 224 229 234 232 224 210 160 151 160 162 159 156 147 126 111 117 127 132 131 114 108 101 115 144 161 155 142 137 137 135 131 126 124 126 132 138 140 142 143 142 143 147 154 160 163 160 158 159 164 178 192 202 224 255 287 300 296 311 323 315 310 310 313 315 316 314 313 312 309 307 304 302 300 297 293 284 271 261 258 259 261 262 265 272 271 263 259 257 259 260 260 259 256 251 246 244
142 193 204 199 201 209 185 157 158 162 163 167 168 149 120 118 142 149 139 131 124 121 123 137 157 164 156 144 142 140 135 130 128 129 132 138 143 143 143 145 146 150 157 163 168 170 168 168 171 181 200 211 229 260 279 290 302 308 322 336 334 320 315 319 323 324 319 314 311 306 303 300 298 297 294 292 289 284 276 271 268 267 268 270 274 273 267 263 262 260 259 260 264 262 259 256 255
118 168 170 158 178 190 158 155 160 164 168 170 169 154 133 142 158 153 141 135 130 133 139 150 163 166 158 151 147 141 136 134 134 134 135 139 143 145 147 150 154 158 163 169 175 178 178 182 188 195 203 226 253 272 293 307 316 323 325 326 324 315 307 308 315 319 319 316 311 306 304 303 301 298 296 291 288 285 280 277 273 271 272 272 273 271 268 265 265 263 260 259 262 264 263 262 262
98 173 165 158 169 157 153 159 161 165 161 148 165 180 164 159 157 154 149 143 139 143 151 158 167 169 161 156 151 145 140 138 137 135 134 139 143 148 153 159 162 165 171 176 183 187 188 195 201 206 224 249 256 272 305 314 317 317 317 317 317 311 304 303 309 314 317 316 312 309 306 304 301 298 295 292 289 286 282 279 275 273 272 272 273 273 272 269 266 264 263 262 261 261 261 262 261
67 170 168 153 160 152 154 161 156 156 146 143 187 178 160 160 156 155 154 149 148 151 159 165 170 171 166 161 155 148 144 141 140 139 139 143 147 153 161 168 170 173 180 185 190 196 204 212 214 228 253 261 259 293 313 315 316 312 311 312 313 310 308 308 311 315 316 315 313 310 308 305 302 298 295 292 290 288 287 285 281 278 276 275 275 275 275 274 271 269 266 264 263 261 259 259 258
64 132 163 141 155 155 154 160 154 149 135 138 161 160 156 156 153 155 157 155 155 156 164 169 171 172 169 163 157 151 148 146 147 148 149 151 153 159 169 177 181 184 188 194 200 209 219 222 231 254 269 273 287 303 307 308 307 305 304 305 308 309 310 311 312 313 311 310 308 307 306 304 302 300 297 294 290 290 289 289 288 286 284 282 281 279 277 276 274 272 270 268 265 262 258 257 256
78 97 140 140 154 157 154 160 158 162 154 136 148 162 158 153 153 153 152 152 154 160 167 172 173 175 173 165 160 158 157 156 156 157 158 158 160 166 175 183 190 194 197 203 211 220 227 233 252 266 269 278 289 294 296 299 298 298 300 302 305 306 305 306 304 304 303 302 302 302 302 302 302 300 298 296 292 290 290 291 290 289 287 285 284 283 282 280 277 274 271 269 267 265 261 258 257
100 109 132 147 154 157 159 164 166 174 176 179 186 176 165 154 154 148 144 145 154 166 173 176 177 178 177 170 167 168 167 166 165 165 165 165 167 172 177 183 188 193 198 205 214 222 233 247 256 258 266 279 284 286 288 290 292 292 294 297 300 301 301 301 299 299 298 298 298 298 298 298 298 297 296 294 292 290 289 290 289 288 287 285 284 283 282 283 282 279 275 271 269 267 266 263 262
131 131 142 153 156 159 169 178 179 183 188 173 164 169 164 153 151 147 151 155 163 175 180 184 185 183 181 175 176 178 176 176 173 174 175 173 173 176 180 183 186 191 199 208 219 229 242 250 251 255 264 270 272 277 283 288 293 294 294 295 297 299 299 299 299 299 298 297 296 295 295 294 293 292 291 291 290 288 287 287 287 287 287 287 287 286 285 283 283 283 281 277 273 270 268 266 265
161 152 153 163 168 168 177 184 183 188 178 161 155 165 164 154 158 159 163 165 170 181 186 189 191 189 188 184 183 184 182 183 182 183 183 182 183 185 188 191 195 202 211 222 232 236 241 242 245 252 258 265 272 278 285 290 294 294 296 296 297 298 298 298 298 298 298 297 295 294 292 290 288 286 286 285 285 285 285 285 285 286 287 287 288 289 289 286 283 282 282 280 277 273 269 266 264
169 164 157 167 176 174 175 180 185 188 171 173 173 173 168 155 163 171 173 178 180 187 194 196 196 195 193 190 190 189 186 186 188 189 190 191 193 196 200 205 211 218 224 229 230 228 230 235 244 254 262 271 278 283 287 289 290 291 293 294 295 296 296 296 295 295 295 294 294 292 290 289 286 285 283 282 281 281 281 281 282 283 285 286 287 287 287 287 285 282 280 279 277 274 271 268 265
164 162 153 160 174 173 168 169 181 184 166 185 183 173 171 158 160 176 184 195 202 207 210 202 198 199 196 192 191 190 189 189 190 191 193 196 200 203 208 212 216 219 219 220 220 224 232 243 253 263 269 275 281 286 289 291 293 293 294 294 295 294 293 293 292 292 291 291 291 290 288 287 286 285 284 283 283 282 281 280 279 280 281 284 285 285 285 286 286 283 281 278 277 277 276 272 267
151 156 153 154 163 171 166 147 162 176 170 175 174 170 170 160 151 166 182 218 264 250 239 221 206 201 199 194 191 192 193 194 193 192 194 197 200 204 209 212 212 212 214 218 226 236 246 255 262 268 273 279 284 288 291 293 295 296 296 296 294 293 292 291 290 290 289 289 288 287 286 286 285 285 284 284 283 283 282 281 280 279 279 280 282 283 284 285 286 287 285 282 281 282 283 280 274
132 147 154 154 156 166 171 154 146 160 175 174 169 167 161 153 142 119 87 39 38 5 276 236 210 201 203 201 194 192 194 196 196 195 196 198 201 205 208 209 210 213 221 229 240 251 259 265 270 274 277 280 283 286 288 291 293 295 295 294 292 291 290 290 289 289 288 287 286 285 285 284 284 285 284 284 282 280 279 279 279 278 278 278 278 279 280 281 282 285 286 285 283 282 283 283 280
135 130 149 161 161 159 161 152 136 147 177 177 158 157 154 150 140 97 81 75 70 64 44 311 219 200 199 199 194 192 196 200 200 198 198 200 203 206 207 210 215 223 234 243 254 263 269 274 277 280 281 283 284 285 287 290 294 295 295 293 292 291 290 289 288 287 287 286 285 284 284 284 284 284 284 284 283 280 277 275 275 275 276 277 277 277 277 277 278 280 282 283 283 283 282 281 279
157 136 164 174 160 144 143 145 143 155 179 176 156 160 165 163 159 129 115 107 87 86 91 351 252 193 187 190 193 195 200 203 201 198 198 200 202 205 209 216 225 239 253 263 270 275 279 282 283 283 283 284 285 286 289 293 296 296 296 296 295 294 293 291 290 288 286 286 285 286 286 286 286 286 285 284 284 283 281 277 274 272 273 274 275 275 276 276 277 278 278 279 282 284 283 281 279
172 129 154 176 160 147 158 169 170 175 188 191 173 168 179 188 196 184 152 134 118 120 136 113 149 171 179 193 195 193 200 205 203 200 200 203 205 210 217 230 251 271 280 283 284 284 285 284 283 282 282 283 285 288 292 295 297 297 297 298 298 297 296 295 294 292 290 288 287 287 287 287 287 286 286 285 285 284 284 282 279 274 272 270 270 271 273 275 277 278 280 281 282 283 283 281 279
180 130 117 162 176 167 168 174 180 188 195 193 183 183 203 222 228 207 193 199 169 152 154 149 152 167 182 198 189 187 197 206 206 205 209 213 216 221 229 253 284 291 291 289 286 285 284 282 281 281 282 284 286 290 293 294 294 295 297 298 299 299 299 298 297 296 295 294 292 291 290 290 289 288 287 286 286 285 285 284 282 279 274 270 269 270 271 273 276 278 281 283 283 283 283 280 277
223 214 132 142 178 194 189 178 182 192 197 189 191 206 228 239 245 238 226 233 214 174 163 164 171 183 193 196 193 193 198 205 207 209 214 221 227 230 237 263 284 289 294 295 292 288 284 282 282 283 284 286 289 292 293 293 294 295 296 297 298 299 299 298 297 297 296 295 294 293 293 292 291 290 290 289 289 288 287 285 283 281 278 274 271 271 272 273 275 277 279 281 282 282 281 278 274
252 234 168 146 166 194 207 198 191 202 216 208 212 228 266 265 264 264 243 235 232 214 190 179 182 191 197 198 200 203 204 207 210 215 220 226 228 225 233 259 276 288 297 301 300 293 285 282 282 283 285 287 290 293 294 295 297 299 301 302 302 302 302 302 302 302 301 300 298 297 296 295 294 293 292 292 292 291 290 288 286 283 280 277 275 273 273 274 275 276 276 278 279 280 280 278 272
76 88 159 163 178 198 213 220 216 223 230 216 219 231 264 279 274 275 253 237 235 236 227 207 199 199 202 200 198 201 205 207 213 222 226 229 225 220 232 256 273 286 293 298 301 297 290 287 286 286 288 291 293 295 298 301 304 307 308 307 307 307 308 310 310 310 310 309 307 304 302 301 299 299 298 297 296 295 295 294 291 288 285 282 280 278 276 274 274 275 275 275 275 276 277 277 274
98 75 113 166 196 234 262 261 242 231 223 213 221 228 247 272 272 275 254 238 243 252 251 238 221 211 209 206 204 205 204 205 215 222 224 229 230 229 237 250 266 280 288 297 298 296 296 295 294 294 295 296 298 301 305 309 311 312 311 310 312 314 315 315 316 316 316 315 312 309 308 307 307 306 307 307 306 304 302 301 299 296 292 289 286 283 280 276 275 274 274 274 274 274 276 278 277
128 101 66 120 217 280 292 270 232 217 216 228 231 228 228 267 272 266 255 254 262 271 268 258 244 232 224 217 214 213 210 211 218 221 222 230 232 230 233 242 257 272 289 298 293 287 293 298 299 300 300 301 304 308 312 314 314 313 312 314 317 318 319 319 320 320 319 317 313 311 312 314 316 320 323 324 322 319 317 313 309 307 302 297 291 286 282 278 276 275 274 275 276 277 279 281 280
177 195 5 40 296 283 311 147 187 185 225 243 238 228 222 251 274 264 266 278 287 291 273 257 247 241 236 231 226 223 221 221 225 228 231 235 234 228 233 246 259 272 293 299 288 285 296 302 303 304 304 304 308 313 315 316 315 312 313 317 319 320 321 322 323 323 320 317 313 313 318 321 326 335 336 331 328 329 329 323 320 319 316 312 305 296 285 278 276 277 278 280 283 284 285 285 284
228 259 271 231 208 220 199 101 145 144 245 242 237 226 215 223 261 277 289 293 288 284 272 252 248 250 247 242 241 237 233 230 230 234 238 241 243 238 242 257 266 275 296 299 292 296 302 307 308 306 306 308 311 313 316 317 313 310 315 319 320 322 323 324 325 325 323 320 317 318 322 325 331 339 338 335 336 336 335 331 328 328 326 325 322 316 311 304 297 293 290 289 290 293 296 295 291
240 254 253 220 168 108 258 313 151 221 241 225 224 214 213 235 258 279 286 280 279 276 267 240 236 252 255 252 256 250 243 238 234 237 243 247 251 249 252 266 274 280 295 298 299 306 308 311 311 309 310 311 312 314 316 316 310 311 318 320 322 325 327 327 328 328 328 325 323 322 324 326 330 335 338 342 342 340 342 341 337 335 333 334 333 331 331 327 322 314 306 301 301 302 302 300 297
228 234 232 202 101 77 272 274 309 268 244 208 208 203 227 252 264 283 276 275 294 283 256 222 210 229 248 255 259 256 250 244 238 238 246 253 257 257 259 270 279 284 293 298 303 309 311 312 313 313 313 314 314 316 317 315 311 313 319 322 327 330 331 331 331 332 333 332 329 326 325 325 328 332 336 341 342 344 349 349 345 340 338 338 337 336 334 332 329 320 309 301 301 302 298 294 292
218 219 220 246 234 168 233 236 224 265 234 190 200 203 237 239 249 309 278 269 304 298 246 216 206 216 233 242 244 245 247 245 239 240 247 254 257 258 261 270 279 283 291 298 305 310 312 313 315 315 316 317 318 319 318 315 312 316 320 326 333 336 336 333 334 335 335 334 332 329 327 327 329 329 328 330 335 343 348 349 349 346 343 343 342 338 336 337 335 325 317 309 302 300 296 294 293
226 226 235 273 259 223 236 234 229 264 11 202 214 226 250 252 269 290 279 267 281 285 240 224 218 221 227 233 238 239 240 238 235 237 242 248 251 255 259 266 275 281 289 299 306 310 313 318 320 320 320 320 321 323 321 314 312 314 318 327 336 339 337 334 334 334 332 333 332 328 327 329 329 326 320 317 321 330 336 338 342 345 345 347 347 343 339 338 331 320 321 321 310 305 301 298 296
250 255 259 274 246 223 237 236 239 5 14 258 238 246 264 272 279 282 278 270 266 258 245 239 236 236 235 243 256 248 239 231 225 228 235 243 247 251 255 260 268 274 280 292 302 308 315 320 324 326 327 325 325 326 322 314 309 310 314 324 334 338 337 334 333 332 331 332 331 328 327 326 324 323 320 316 311 310 313 316 324 334 339 340 342 342 341 338 329 321 323 325 319 312 307 302 299
266 275 272 263 242 235 236 224 46 55 281 267 255 263 276 279 281 292 298 284 266 259 252 245 242 239 231 239 262 258 241 228 217 219 228 239 245 248 251 255 260 265 270 280 294 305 311 317 322 326 328 328 327 325 321 313 305 304 308 317 328 333 333 332 332 331 331 331 331 331 328 322 317 318 320 318 311 304 305 309 315 322 328 331 331 332 335 335 330 327 329 330 324 317 310 305 304
261 270 269 262 255 243 220 207 31 68 247 290 274 268 275 273 272 285 298 292 287 275 257 252 251 246 240 252 267 273 261 244 230 224 226 233 242 247 251 254 257 262 267 273 284 296 306 314 320 324 327 329 327 324 319 310 300 297 298 305 316 323 326 329 330 331 330 328 331 333 332 324 314 308 305 302 302 301 301 304 309 315 321 324 323 322 326 327 324 322 322 322 318 314 310 307 305
258 262 255 253 257 254 239 227 218 191 195 263 286 277 271 273 274 276 286 296 294 275 260 258 257 255 259 264 273 279 278 271 252 236 231 232 240 247 252 256 258 261 265 271 281 291 302 313 319 323 326 328 327 323 316 306 295 290 290 295 304 312 318 324 327 328 328 328 330 332 333 328 318 310 305 303 304 301 299 301 305 311 318 320 317 314 315 315 311 309 309 309 308 306 305 303 302
254 259 252 246 249 254 251 241 231 222 190 169 191 275 268 274 282 283 291 298 288 271 262 259 259 264 264 269 282 285 281 275 261 246 239 236 239 244 250 255 257 259 265 274 282 290 301 311 316 320 324 326 327 323 315 305 294 288 287 292 299 304 311 318 323 325 327 327 328 329 329 329 326 323 322 321 319 313 308 307 307 309 313 314 312 307 305 303 301 301 303 304 305 305 303 301 299
257 263 259 252 250 247 245 246 237 233 232 201 170 257 274 279 284 287 294 295 285 271 259 252 256 261 262 270 283 283 274 267 257 249 242 239 240 244 249 254 256 261 268 274 281 291 302 309 311 314 318 323 325 324 320 314 303 294 292 293 296 299 305 313 319 324 325 323 323 322 323 326 331 337 342 342 339 332 326 322 318 316 312 307 306 302 300 301 301 303 305 305 306 305 303 302 300